SCP
0 0 0 0 0 0 0 0 0 0 0 0 0 0 0 0 0 0 0 0 0 1 1 1 1 0 0 0 0 0 0 0 0 0 0 0 1 1 0 0 0 0 0
0 0 0 0 0 0 0 0 0 0 0 0 0 0 0 0 0 0 0 0 0 0 1 0 0 0 0 0 0 0 0 0 0 0 0 0 0 0 0 0 0 0 0
0 0 0 0 0 0 0 0 0 0 0 0 0 0 0 0 0 0 0 0 0 0 0 0 0 0 0 0 0 0 0 0 0 0 0 0 0 0 0 0 0 0 0
0 0 0 0 0 0 0 0 0 0 0 0 0 0 0 0 0 0 0 0 0 0 0 0 0 0 0 0 0 0 0 0 0 0 0 0 0 0 0 0 0 0 0
0 0 0 0 0 0 0 0 0 0 0 0 0 0 0 0 0 0 0 0 0 0 0 0 0 0 0 0 0 0 0 0 0 0 0 0 0 0 0 0 0 0 0
0 0 0 0 0 0 0 0 0 0 0 0 0 0 0 0 0 0 0 0 0 0 0 0 0 0 0 0 0 0 0 0 0 0 0 0 0 0 0 0 0 0 0
0 0 0 0 0 0 0 0 0 0 0 0 0 0 0 0 0 0 0 0 0 0 0 0 0 0 0 0 0 0 0 0 0 0 0 0 0 0 0 0 0 0 0
0 0 0 0 0 0 0 0 0 0 0 0 0 0 0 0 0 0 0 0 0 0 0 0 0 0 0 0 0 0 0 0 0 0 0 0 0 0 0 0 0 0 0
0 0 0 0 0 0 0 0 0 0 0 0 0 0 0 0 0 0 0 0 0 0 0 0 0 0 0 0 0 0 0 0 0 0 0 0 0 0 0 0 0 0 0
0 0 0 0 0 0 0 0 0 0 0 0 0 0 0 0 0 0 0 0 0 0 0 0 0 0 0 0 0 0 0 0 0 0 0 0 0 0 0 0 0 0 0
0 0 0 0 0 0 0 0 0 0 0 0 0 0 0 0 0 0 0 0 0 0 0 0 0 0 0 0 0 0 0 0 0 0 0 0 0 0 0 0 0 0 0
0 0 0 0 0 0 0 0 0 0 0 0 0 0 0 0 0 0 0 0 0 0 0 0 0 0 0 0 0 0 0 0 0 0 0 0 0 0 0 0 0 0 0
0 0 0 0 0 0 0 0 0 0 0 0 0 0 0 0 0 0 0 0 0 0 0 0 0 0 0 0 0 0 0 0 0 0 0 0 0 0 0 0 0 0 0
0 0 0 0 0 0 0 0 0 0 0 0 0 0 0 0 0 0 0 0 0 0 0 0 0 0 0 0 0 0 0 0 0 0 0 0 0 0 0 0 0 0 0
0 0 0 0 0 0 0 0 0 0 0 0 0 0 0 0 0 0 0 0 0 0 0 0 0 0 0 0 0 0 0 0 0 0 0 0 0 0 0 0 0 0 0
0 0 0 0 0 0 0 0 0 0 0 0 0 0 0 0 0 0 0 0 0 0 0 0 0 0 0 0 0 0 0 0 0 0 0 0 0 0 0 0 0 0 0
0 0 0 0 0 0 0 0 0 0 0 0 0 0 0 0 0 0 0 0 0 0 0 0 0 0 0 0 0 0 0 0 0 0 0 0 0 0 0 0 0 0 0
0 0 0 0 0 0 0 0 0 0 0 0 0 0 0 0 0 0 0 0 0 0 0 0 0 0 0 0 0 0 0 0 0 0 0 0 0 0 0 0 0 0 0
0 0 0 0 0 0 0 0 0 0 0 0 0 0 0 0 0 0 0 0 0 0 0 0 0 0 0 0 0 0 0 0 0 0 0 0 0 0 0 0 0 0 0
0 0 0 0 0 0 0 0 0 0 0 0 0 0 0 0 0 0 0 0 0 0 0 0 0 0 0 0 0 0 0 0 0 0 0 0 0 0 0 0 0 0 0
0 0 0 0 0 0 0 0 0 0 0 0 0 0 0 0 0 0 0 0 0 0 0 0 0 0 0 0 0 0 0 0 0 0 0 0 0 0 0 0 0 0 0
0 0 0 0 0 0 0 0 0 0 0 0 0 0 0 0 0 0 0 0 0 0 0 0 0 0 0 0 0 0 0 0 0 0 0 0 0 0 0 0 0 0 0
0 0 0 0 0 0 0 0 0 0 0 0 0 0 0 0 0 0 0 0 0 0 0 0 0 0 0 0 0 0 0 0 0 0 0 0 0 0 0 0 0 0 0
0 0 0 0 0 0 0 0 0 0 0 0 0 0 0 0 0 0 0 0 0 0 0 0 0 0 0 0 0 0 0 0 0 0 0 0 0 0 0 0 0 0 0
0 0 0 0 0 0 0 0 0 0 0 0 0 0 0 0 0 0 0 0 0 0 0 0 0 0 0 0 0 0 0 0 0 0 0 0 0 0 0 0 0 0 0
0 0 0 0 0 0 0 0 0 0 0 0 0 0 0 0 0 0 0 0 0 0 0 0 0 0 0 0 0 0 0 0 0 0 0 0 0 0 0 0 0 0 0
Wind_Speed
3 2 1 1 1 1 0 0 0 0 1 1 2 1 1 1 1 1 2 1 1 1 1 1 2 2 2 2 2 2 2 2 2 2 2 2 2 1 1 1 1 1 0
3 1 1 1 1 0 0 0 0 1 1 1 1 2 2 1 1 1 1 2 2 1 1 1 1 1 2 3 3 3 2 2 3 2 2 2 3 2 1 1 1 1 1
4 2 1 1 0 0 1 0 0 0 0 1 2 2 2 1 1 1 1 2 2 1 1 1 0 1 1 2 3 3 3 3 3 2 2 3 3 2 2 2 1 1 0
2 2 2 1 1 1 1 0 0 1 1 1 2 3 2 2 1 0 0 1 1 1 1 1 1 0 1 1 1 2 2 4 3 2 1 1 1 2 2 2 2 1 1
2 2 1 1 1 1 0 0 1 1 1 1 2 2 2 1 1 1 1 1 1 1 1 1 1 1 0 1 1 1 2 3 3 3 2 2 2 2 2 3 2 2 1
1 1 1 1 1 0 0 0 1 1 1 1 2 2 2 2 1 1 1 1 1 1 1 1 1 1 1 1 1 1 2 2 3 2 2 2 2 3 3 3 3 3 1
2 1 1 1 0 1 1 0 1 2 1 1 2 1 1 2 2 1 1 0 0 1 1 1 1 1 1 1 1 1 2 2 3 3 3 3 2 2 2 3 2 2 2
2 2 2 1 1 1 1 0 1 1 1 1 1 1 1 1 0 0 1 1 1 1 1 1 1 1 1 1 1 1 1 2 3 3 3 2 2 2 2 2 3 2 2
2 2 2 2 1 1 1 1 1 1 1 1 1 1 1 0 0 0 0 0 1 1 1 1 1 1 1 1 1 1 1 2 2 3 3 3 2 2 2 3 3 3 4
2 2 2 2 1 1 1 1 1 1 1 1 1 1 0 0 0 0 0 1 1 1 1 1 1 1 1 1 1 1 2 2 2 2 2 2 2 2 2 3 3 3 4
2 1 1 1 1 1 2 2 2 1 1 1 1 1 1 0 0 0 1 1 1 1 1 1 2 2 2 2 2 2 2 3 2 2 3 3 3 2 2 2 3 3 3
1 1 1 1 1 2 2 1 1 1 1 1 1 0 0 1 0 1 1 1 1 1 1 1 2 2 2 2 2 2 3 3 3 3 3 3 3 3 3 3 3 3 3
2 2 2 2 2 2 2 1 1 1 0 0 0 0 0 0 1 1 1 1 1 2 2 2 2 2 2 2 3 3 3 3 3 3 3 3 3 4 3 3 3 3 3
3 3 3 3 2 2 2 2 1 1 1 1 1 0 0 1 1 2 2 2 2 2 2 2 3 3 3 3 3 3 2 2 3 3 3 4 4 4 4 4 4 3 3
3 4 3 3 3 3 3 3 2 2 1 1 1 1 1 1 1 1 2 2 2 3 3 3 3 3 3 3 3 3 3 3 3 3 3 3 4 4 4 3 3 4 3
5 5 4 4 4 4 4 3 3 2 2 2 2 1 1 1 1 2 2 2 3 3 3 3 3 3 3 4 5 4 4 4 4 3 3 3 3 3 4 4 5 5 5
6 5 5 5 5 5 5 4 4 3 3 2 2 1 1 1 2 2 2 2 3 3 3 3 3 4 4 5 5 5 4 4 4 4 4 3 3 4 4 4 4 5 6
6 5 5 5 5 4 4 3 3 3 3 3 2 2 2 2 2 2 3 3 3 3 3 3 4 4 4 5 5 4 4 4 4 5 5 5 5 4 4 4 4 4 4
5 4 4 4 3 4 3 3 3 3 3 3 3 3 2 3 3 3 3 3 3 3 3 4 4 4 5 5 5 4 3 3 4 4 5 5 5 6 6 5 5 5 4
3 3 2 2 2 3 3 4 4 4 4 4 4 3 3 4 4 4 4 3 3 4 3 4 4 4 4 5 5 5 3 3 3 3 4 5 7 7 7 6 6 6 5
2 1 2 2 2 2 3 4 4 5 4 3 3 3 3 4 4 3 3 3 3 3 3 4 4 4 4 5 6 5 3 3 4 4 4 4 6 8 8 7 6 6 5
1 1 2 2 2 2 3 4 4 3 2 2 3 3 3 3 3 3 3 3 3 3 4 4 4 3 3 4 5 6 6 5 4 4 4 4 7 8 8 6 6 6 4
2 2 2 2 1 2 3 4 3 2 2 2 3 3 3 3 3 3 3 3 3 3 3 3 4 4 3 4 7 7 7 6 4 4 6 7 7 7 6 6 5 4 3
2 1 2 2 2 2 3 3 2 1 2 3 3 3 3 3 3 3 3 3 4 4 4 4 4 4 4 4 4 4 4 5 4 4 4 6 6 5 4 3 3 3 3
2 2 3 3 3 2 3 2 2 2 3 3 3 3 4 3 3 4 4 5 5 5 5 5 5 5 5 6 7 5 4 4 4 3 3 3 3 3 3 2 3 3 3
2 2 3 3 3 3 3 3 3 3 4 4 4 3 3 3 3 3 4 6 6 7 8 8 7 6 8 9 9 9 8 8 6 4 3 4 4 4 4 4 4 4 4
Wind_Direction
275 300 325 332 3 26 33 65 102 116 142 163 164 153 139 109 75 51 48 55 62 112 142 173 170 169 164 168 165 162 166 163 147 147 149 162 165 183 181 177 155 131 118
261 283 326 357 8 349 359 8 148 163 170 169 163 173 172 152 112 80 56 46 49 62 90 135 170 173 172 170 169 157 162 160 172 177 173 185 184 176 183 175 170 184 177
245 249 252 258 271 317 304 315 57 100 133 139 143 133 133 121 92 54 41 33 44 54 63 62 173 178 170 184 186 184 183 183 185 204 201 193 195 173 178 185 184 182 226
232 229 236 250 258 279 278 252 121 107 94 112 134 148 155 155 179 220 124 62 58 58 61 61 66 137 168 197 202 215 214 191 189 202 247 269 204 198 185 180 185 197 242
224 218 231 245 251 261 244 191 127 107 99 113 128 150 150 151 146 108 88 65 62 55 46 48 67 47 269 220 212 229 233 210 204 200 202 207 221 234 212 207 199 212 239
226 230 229 207 173 108 113 152 145 113 105 121 130 140 150 146 134 103 80 32 22 35 26 23 32 25 353 314 260 233 240 234 224 216 212 203 206 207 216 221 218 227 235
210 196 160 143 136 88 66 59 154 120 114 127 134 141 155 166 170 173 195 252 314 346 344 348 339 331 319 313 302 258 245 239 229 222 226 228 236 232 237 225 226 239 242
213 203 196 184 156 107 73 43 112 132 139 141 137 128 127 176 186 208 231 240 264 299 313 325 325 325 314 302 282 271 269 251 240 233 230 232 236 229 225 227 216 232 235
217 212 201 184 168 145 101 47 90 92 103 121 124 123 116 127 115 357 289 288 310 311 319 310 301 301 301 290 268 246 264 253 241 244 239 233 237 239 242 238 233 234 234
224 213 200 185 173 160 132 115 89 97 89 70 70 63 81 283 260 241 273 297 289 299 298 297 287 287 285 273 249 249 245 241 237 237 242 247 245 235 238 233 244 249 241
235 220 205 170 159 147 134 121 112 95 76 68 57 41 23 5 341 312 307 301 293 290 277 276 277 275 270 264 247 247 251 244 243 243 237 243 247 242 240 236 237 240 234
237 225 204 172 157 165 157 150 136 114 78 63 62 43 12 0 331 304 306 307 295 291 282 277 273 273 276 270 252 246 250 246 243 245 244 243 239 241 244 240 241 241 238
226 222 207 206 198 191 186 185 184 174 143 127 132 80 333 281 299 285 283 285 280 279 278 271 270 274 273 271 261 250 252 253 250 246 243 246 238 239 239 240 242 243 244
228 224 220 218 219 210 201 200 215 215 212 208 194 181 286 289 291 296 278 273 271 268 267 264 261 263 263 261 256 249 249 254 259 257 253 252 247 243 240 237 236 234 235
247 238 229 223 222 216 212 209 217 219 214 214 226 242 277 291 295 298 296 279 269 267 263 262 261 260 256 251 254 253 248 250 253 256 258 257 255 259 256 247 238 231 232
250 247 239 230 228 224 222 214 217 217 212 213 232 261 279 294 294 295 296 292 285 280 272 264 260 261 259 260 261 256 246 247 248 250 254 253 245 247 254 253 248 242 234
248 248 241 235 231 228 222 218 213 207 206 212 226 241 256 273 285 287 286 285 284 279 277 273 265 264 262 266 257 251 251 245 245 246 247 249 249 244 243 244 245 245 246
254 252 246 241 236 227 215 209 201 203 209 216 224 234 248 262 276 274 273 282 286 278 273 274 274 270 264 267 264 256 250 247 246 247 247 246 246 244 241 241 239 240 241
259 255 247 240 228 212 198 192 200 205 211 222 231 236 240 249 256 262 270 278 279 278 280 277 274 274 270 266 263 259 251 247 251 252 250 246 246 243 243 241 237 242 245
258 253 240 213 206 204 188 192 203 209 221 231 239 239 237 241 247 255 265 274 273 275 280 280 276 268 269 272 268 261 250 246 251 253 251 247 246 241 241 240 235 239 245
258 230 198 200 206 197 190 203 210 222 233 241 245 245 243 246 251 258 264 268 271 271 272 274 277 272 270 266 268 263 259 248 250 252 254 253 249 249 245 243 241 243 248
237 191 195 216 206 188 196 213 226 238 239 236 241 245 248 248 247 251 258 258 254 258 263 268 275 274 274 269 264 261 264 266 259 256 260 260 258 257 250 248 238 236 240
240 212 207 222 218 203 210 226 243 241 231 235 244 250 253 250 246 243 246 250 245 245 254 259 265 272 274 271 272 266 263 258 264 265 266 266 263 265 253 243 236 234 229
248 228 214 230 243 237 239 245 253 231 225 234 241 243 243 247 246 245 239 239 238 242 246 254 260 266 266 263 259 259 260 257 255 260 268 265 262 261 255 242 235 234 233
255 236 230 241 250 252 254 259 240 215 227 237 238 241 240 244 246 247 247 247 245 245 250 251 254 256 261 263 272 271 262 258 253 257 265 261 253 240 236 239 239 235 228
258 249 248 250 254 252 256 256 237 219 217 229 233 235 241 244 247 255 270 269 269 273 267 268 268 269 273 278 271 271 272 269 259 256 246 238 236 237 238 237 238 233 233